Regional Weather Roundup
Issued by NWS

Home | Current Version | Previous Version | Text Only | Print | Product List | Glossary On
Versions: 1 2 3 4 5 6 7 8 9 10 11 12 13 14 15 16 17 18 19 20 21 22 23 24 25 26 27 28 29 30 31 32 33 34 35 36 37 38 39 40 41 42 43 44 45 46 47 48 49 50
592
ASUS45 KREV 281310
RWRNV
NEVADA REGIONAL WEATHER ROUNDUP
NATIONAL WEATHER SERVICE RENO NV
600 AM PDT TUE MAR 28 2017

NOTE: "FAIR" INDICATES FEW OR NO CLOUDS BELOW 12,000 FEET WITH NO
SIGNIFICANT WEATHER AND/OR OBSTRUCTIONS TO VISIBILITY.

NVZ001-003-004-281400-
WESTERN NEVADA

CITY           SKY/WX    TMP DP  RH WIND       PRES   REMARKS
RENO           PTCLDY    34  25  69 CALM      30.26R
CARSON CITY    FAIR      28  23  80 CALM      30.26R
MINDEN         FAIR      21  19  93 CALM      30.26R
FALLON         CLEAR     27  19  72 SE6       30.24R
LOVELOCK       CLEAR     25  21  85 CALM      30.25R
HAWTHORNE      CLEAR     34  23  64 W6        30.24R
$$

NVZ002-CAZ072-073-281400-
NORTHERN AND CENTRAL SIERRA

CITY           SKY/WX    TMP DP  RH WIND       PRES   REMARKS
S. LAKE TAHOE  CLEAR     25  22  88 S5        30.20R
TRUCKEE        CLEAR     21  21 100 CALM      30.23S
SQUAW VLY 8000 NOT AVBL
MAMMOTH LAKES  FAIR      24  15  68 W13       30.20S
BRIDGEPORT       N/A     22  14  71 CALM      30.19S
$$

NVZ030-031-036-281400-
NORTHERN NEVADA

CITY           SKY/WX    TMP DP  RH WIND       PRES   REMARKS
ELKO           CLEAR     27  22  81 E3        30.22R
WINNEMUCCA     CLEAR     21  20  96 SE5       30.27R
WENDOVER       CLEAR     39  22  50 NW24G35   30.12R
$$

NVZ035-037-281400-
CENTRAL NEVADA

CITY           SKY/WX    TMP DP  RH WIND       PRES   REMARKS
ELY            CLEAR     27  22  81 NW7       30.14S
EUREKA           N/A     25  19  78 N3        30.20R
$$

NVZ013-014-281400-
SOUTH CENTRAL NEVADA

CITY           SKY/WX    TMP DP  RH WIND       PRES   REMARKS
TONOPAH        CLEAR     32  32 100 N13       30.18R
$$

NVZ017-020-022-281400-
SOUTHERN NEVADA

CITY           SKY/WX    TMP DP  RH WIND       PRES   REMARKS
LAS VEGAS      PTCLDY    55  21  26 NW21G28   30.02R
N. LAS VEGAS   CLEAR     54  23  30 NW21G30   30.01R
NELLIS AFB     CLEAR     54  25  33 W23G31    30.02R
HENDERSON      NOT AVBL
MERCURY        NOT AVBL
$$




USA.gov is the U.S. government's official web portal to all federal, state and local government web resources and services.